Temp
12 12 12 12 12 12 12 12 12 12 12 12 12 12 12 12 12 12 12 11 11 11 11 11 11 11 10 10 10 11 11 11 11 11 11 11 11 11 11 11 11 10 10 10 10 9 9 9 9 8 8 8 8 8 8 8 8 8 8 8 8 8 8 7 7 7 7 7 7
12 12 12 12 11 11 11 11 11 11 11 11 12 12 11 11 11 11 11 11 11 11 11 11 11 10 10 10 10 11 11 11 11 11 11 11 10 10 10 10 10 10 10 10 9 9 9 9 9 8 8 8 8 8 8 8 8 8 8 8 8 8 7 7 7 7 7 7 7
11 11 11 11 11 11 11 11 11 11 11 11 11 11 11 11 11 11 11 11 11 11 11 11 11 10 10 10 10 11 11 11 11 11 11 11 10 10 10 10 10 10 10 10 9 9 9 9 9 8 8 8 8 8 7 8 8 8 8 8 7 7 7 7 7 7 7 7 7
11 11 11 11 11 11 11 11 11 11 11 11 11 11 11 11 11 11 11 11 11 11 11 11 10 10 10 10 10 11 11 11 11 11 11 11 10 10 10 10 10 10 10 10 9 9 9 9 9 8 8 8 8 8 8 7 7 7 7 7 7 7 7 7 7 7 7 7 7
11 11 11 11 11 12 12 12 11 11 11 11 11 11 11 11 11 11 11 11 11 11 11 11 10 10 10 10 10 11 11 11 11 11 11 11 11 10 10 10 10 10 10 10 10 10 9 9 9 8 8 8 8 8 8 7 7 7 7 7 7 7 7 7 7 7 7 6 6
11 11 11 11 11 11 11 11 11 11 11 11 11 11 11 11 11 11 11 11 11 11 11 10 10 10 10 10 10 10 11 11 11 11 11 11 10 10 10 10 10 10 10 10 10 10 10 9 9 8 8 8 8 8 7 7 7 7 7 7 7 7 7 7 7 6 6 6 6
11 11 11 11 11 11 11 11 11 11 11 11 11 11 11 11 11 11 11 11 11 11 10 10 10 10 10 10 10 10 10 11 11 11 11 11 10 10 10 10 10 10 10 10 10 10 10 9 8 8 8 8 8 7 7 7 7 7 7 7 7 7 6 6 6 6 6 6 6
11 11 11 11 11 11 11 11 11 11 11 11 11 11 11 11 11 11 11 11 11 11 10 10 10 10 10 10 10 10 10 10 10 11 11 10 10 10 10 10 10 10 10 10 10 10 9 9 8 8 8 8 7 7 7 7 7 7 7 6 6 6 6 6 6 6 6 6 6
11 11 11 11 11 11 11 11 11 11 11 11 11 11 11 11 11 11 11 11 11 11 10 10 10 10 10 10 10 10 10 10 11 10 10 10 10 10 10 10 10 10 10 10 10 10 9 9 8 8 8 8 7 7 7 7 7 6 6 6 6 6 6 6 6 6 6 6 6
11 11 11 11 11 11 11 11 11 11 11 11 11 11 11 11 11 11 11 11 11 11 10 10 10 10 10 10 10 10 10 11 11 11 10 10 10 10 10 10 10 10 9 9 9 9 9 9 8 8 8 8 7 7 7 7 6 6 6 6 6 6 6 6 6 6 6 5 5
12 11 11 11 11 11 11 11 11 11 11 11 11 11 11 11 11 11 11 11 11 10 10 10 10 10 10 10 10 10 10 10 11 11 10 10 10 10 10 10 10 10 9 9 9 9 9 8 8 8 7 7 7 7 7 7 6 6 6 6 6 6 6 6 6 6 5 5 5
12 11 11 11 11 11 10 10 11 11 11 11 11 11 11 11 11 11 11 11 10 10 11 10 10 10 10 10 10 10 10 10 10 10 10 10 10 10 10 10 10 10 9 9 9 9 8 8 8 7 7 7 7 7 7 6 6 6 6 6 6 6 6 6 5 5 5 5 5
11 11 11 11 11 10 10 10 11 11 11 11 11 11 11 11 11 11 11 11 11 11 10 10 10 10 10 10 10 10 10 10 10 10 10 10 10 10 10 9 9 9 9 9 9 9 8 8 8 8 7 7 7 7 7 6 6 6 6 6 6 6 6 5 5 5 5 5 5
11 11 11 11 10 10 10 10 11 11 11 11 11 11 11 11 11 11 11 11 11 11 10 10 10 10 10 10 10 10 10 10 10 10 10 10 10 10 9 9 9 9 9 9 9 9 8 8 8 8 8 7 7 7 7 6 6 6 6 6 6 6 6 5 5 5 5 5 5
11 11 11 11 10 10 10 10 10 11 11 11 11 11 11 11 11 11 11 11 11 11 10 10 10 10 10 10 10 10 10 10 10 9 9 9 9 9 9 9 9 9 9 9 9 9 9 8 8 8 8 7 7 7 7 6 6 6 6 6 6 6 6 5 5 5 5 5 5
11 11 11 11 10 10 10 10 10 11 11 11 11 11 11 11 11 11 11 11 11 10 10 10 10 10 10 10 10 10 10 9 9 9 9 9 9 9 9 8 8 8 8 8 8 8 9 8 8 8 8 7 7 7 7 6 6 6 6 6 6 6 6 5 5 5 5 5 5
11 11 11 10 10 10 10 10 11 11 11 11 11 11 11 11 11 11 11 11 11 10 10 10 11 10 10 10 10 9 9 9 9 9 9 9 9 9 8 8 8 8 8 8 8 8 8 8 8 8 8 7 7 7 7 6 6 6 6 6 6 5 5 5 5 5 4 4 4
10 10 10 10 10 10 10 11 11 11 11 11 11 11 11 11 11 11 11 11 11 11 10 11 11 11 10 10 10 10 9 9 9 9 9 9 9 9 8 8 8 8 8 8 8 8 8 8 8 8 7 7 7 7 7 6 6 6 6 5 5 5 5 5 5 5 4 4 4
11 11 10 10 11 11 11 11 11 11 11 11 11 11 11 11 11 11 11 11 11 11 11 10 10 10 10 10 10 10 10 9 9 9 9 9 9 9 8 8 8 8 8 8 8 8 8 8 8 7 7 7 7 6 6 6 6 5 5 5 5 5 5 5 5 4 4 4 4
11 11 11 11 11 11 11 11 11 11 11 11 11 11 11 11 11 10 10 11 11 11 11 10 10 10 10 10 10 10 10 10 9 9 9 9 9 8 8 8 8 8 8 8 8 8 8 7 7 7 7 6 6 6 6 5 5 5 5 5 5 5 5 4 4 4 4 4 4
11 11 11 11 11 11 11 11 11 11 11 11 10 10 10 10 10 10 10 10 11 10 10 10 10 10 10 10 9 9 10 10 9 9 9 9 8 8 8 8 8 8 8 8 8 7 7 7 7 7 6 6 6 6 5 5 5 5 5 5 5 4 4 4 4 4 4 3 3
11 11 11 11 11 11 11 11 11 11 10 10 10 10 10 10 9 10 10 10 10 10 10 10 10 10 9 9 9 9 9 9 9 9 9 8 8 8 8 8 8 8 8 7 7 7 7 7 7 6 6 6 5 5 5 5 5 5 4 4 4 4 4 4 4 4 3 3 3
11 11 11 11 11 11 11 11 11 10 10 10 10 10 9 9 9 9 9 9 9 9 9 9 9 9 9 9 9 9 9 9 9 8 8 8 8 8 8 8 7 7 7 7 7 7 7 6 6 6 6 5 5 5 5 5 5 4 4 4 4 4 4 4 4 3 3 3 3
11 11 11 11 11 11 11 11 10 10 10 10 10 9 9 9 8 8 8 8 9 9 9 9 9 9 9 9 9 9 9 8 8 8 8 7 7 7 7 7 7 7 7 7 7 7 6 6 6 5 5 5 5 5 5 5 4 4 4 4 4 3 3 3 3 3 3 3 3
11 11 11 11 11 11 10 10 10 10 10 10 9 9 9 8 8 8 8 8 8 8 8 8 8 8 8 8 8 8 8 8 8 8 7 7 7 7 7 6 7 7 7 7 7 7 7 6 6 6 5 5 5 5 5 4 4 4 4 4 4 3 3 3 3 3 2 3 3
11 11 11 11 10 10 10 10 10 10 9 9 9 8 8 8 8 8 8 8 8 8 8 8 8 8 8 8 8 8 7 7 7 7 7 6 6 6 6 6 6 6 6 6 7 7 7 7 6 6 6 5 5 5 4 4 4 4 4 4 4 3 3 3 2 2 2 2 3
11 10 10 10 10 10 9 9 9 9 9 8 8 8 8 7 7 7 7 7 7 7 7 7 7 7 7 7 7 7 7 7 7 6 6 6 6 6 6 6 6 6 6 6 7 7 7 7 6 6 6 5 5 5 4 4 4 4 4 4 4 3 3 2 2 2 2 2 3
10 10 10 9 9 9 9 9 8 8 8 8 8 7 7 7 7 7 7 7 6 6 6 6 6 6 6 7 7 7 7 7 6 6 6 5 6 6 6 6 5 6 6 7 7 7 7 7 6 6 5 5 5 5 5 5 4 4 4 3 3 2 2 2 2 2 2 2 3
10 9 9 9 8 8 8 8 8 7 7 7 7 7 7 6 6 6 6 6 6 6 6 6 6 6 6 6 6 6 6 6 6 5 5 5 5 5 5 5 5 5 6 7 7 7 7 6 5 5 5 5 5 5 5 4 4 3 3 3 2 2 2 2 2 2 2 2 3
9 9 8 8 8 8 7 7 7 7 7 7 7 6 6 6 6 6 6 6 5 5 5 6 6 6 6 6 6 6 6 6 5 5 5 5 5 5 5 5 5 5 6 7 7 6 6 5 5 5 5 5 5 4 4 3 3 3 2 2 2 2 2 2 2 2 2 2 3
8 8 7 7 7 7 7 7 6 6 6 6 6 6 6 5 5 5 5 5 5 5 5 5 5 5 6 6 6 6 5 5 5 5 4 4 4 5 5 4 4 5 6 6 6 6 5 5 4 4 4 4 4 3 3 3 2 2 2 2 2 2 2 2 2 2 3 3 3
7 7 7 7 6 6 6 6 6 6 6 6 5 5 5 5 5 5 5 5 5 5 5 5 5 5 5 5 5 5 5 5 5 4 4 4 4 4 4 4 4 5 5 5 5 5 4 4 3 3 3 3 3 3 2 2 2 2 2 2 2 2 2 2 3 3 3 3 3
6 6 6 6 6 6 6 6 5 5 5 5 5 5 5 5 5 5 4 4 4 4 4 4 4 4 4 4 5 5 4 4 4 4 4 4 4 4 4 4 4 4 5 5 4 4 3 3 3 2 2 2 2 2 2 2 1 1 1 2 2 2 3 3 3 3 3 3 3
6 6 6 6 6 5 5 5 5 5 5 5 5 4 4 4 4 4 4 4 4 4 4 4 4 4 4 4 4 4 4 4 4 4 4 4 3 3 3 3 4 4 4 4 4 3 3 2 2 2 1 1 1 1 1 1 1 1 2 2 2 3 3 3 3 3 3 3 3
5 5 5 5 5 5 5 4 4 4 4 4 4 4 4 4 4 4 4 4 4 4 4 4 4 4 4 4 4 4 4 3 3 3 3 3 3 3 3 3 4 4 4 4 3 3 2 2 2 1 1 1 1 1 1 1 1 2 2 2 2 3 3 3 3 3 3 3 3
5 5 5 4 4 4 4 4 4 4 4 4 3 3 3 3 3 3 3 3 3 3 3 3 3 3 3 3 3 3 3 3 3 3 4 4 3 3 3 4 4 4 4 3 3 2 2 2 2 1 1 1 1 1 1 1 2 2 2 2 2 2 3 3 3 3 3 2 2
4 4 4 4 3 3 3 3 3 3 3 3 3 3 3 3 3 3 3 3 3 3 3 3 3 3 3 3 2 2 3 3 3 3 4 4 3 3 3 3 3 3 3 3 2 2 2 2 2 2 1 1 1 1 1 1 1 2 2 2 2 2 2 2 2 2 2 2 2
3 3 3 3 3 2 2 3 3 3 3 3 2 2 2 2 2 2 2 2 2 2 2 2 2 2 2 2 2 2 2 3 3 3 3 3 3 3 3 3 2 2 2 2 2 2 2 2 2 2 1 1 1 1 1 1 1 1 2 2 2 2 2 2 2 2 1 1 1
3 3 2 2 2 2 2 2 2 2 2 2 2 2 2 2 2 2 2 2 2 2 2 2 1 1 2 2 2 2 2 2 2 2 2 3 2 2 2 2 2 2 2 2 2 2 2 2 2 2 1 1 1 1 1 1 1 1 1 1 1 1 1 1 1 1 1 1 1
2 2 2 2 2 2 2 2 2 2 2 2 2 2 2 1 1 1 1 2 2 1 1 1 1 2 2 2 2 2 2 2 2 2 2 2 2 2 2 2 2 2 2 1 2 2 2 2 2 1 1 1 1 1 1 1 1 1 1 1 1 1 0 0 0 -0 -0 -0 0
1 1 2 2 2 2 2 2 1 1 1 2 2 1 1 1 1 1 1 1 1 1 1 1 1 2 2 2 2 2 1 1 1 1 1 1 1 1 1 1 1 1 1 1 1 1 1 1 1 1 1 1 1 1 1 1 1 1 1 1 1 0 0 -0 -0 -1 -1 -1 -1
Height
789 790 791 792 793 794 795 796 797 798 799 800 801 801 802 803 804 804 805 806 807 807 807 808 809 809 810 810 811 812 813 814 815 816 817 818 819 820 821 822 822 823 824 825 826 827 827 828 829 829 830 830 831 832 832 833 834 835 836 837 838 839 840 841 841 842 842 843 844
786 787 788 790 791 792 793 793 794 795 796 797 798 799 800 801 801 802 803 803 804 805 806 806 807 807 808 808 809 810 811 812 813 814 815 816 817 818 819 820 820 821 822 823 824 825 825 826 827 827 828 828 829 830 831 831 832 833 834 835 836 837 838 839 839 840 841 842 842
783 785 786 787 788 789 790 791 792 792 793 795 796 797 797 798 799 800 801 801 802 803 804 804 805 806 807 807 808 809 810 811 812 812 813 814 815 816 817 817 818 819 820 821 822 823 823 824 825 826 826 827 827 828 829 829 830 832 832 833 834 835 836 837 837 838 839 840 841
781 782 783 784 785 786 787 788 789 790 791 792 793 795 795 796 797 798 798 799 800 801 802 802 803 804 805 806 806 807 808 809 810 811 812 812 813 814 815 816 817 817 818 819 820 821 822 822 823 824 824 825 826 827 827 827 828 830 831 832 832 833 834 835 836 837 837 838 839
778 779 780 781 782 783 784 786 787 788 789 790 792 792 793 794 795 796 796 797 798 798 799 800 801 802 803 804 804 805 806 807 808 809 810 811 812 812 813 814 815 816 816 817 818 819 820 821 821 822 822 823 824 825 825 826 827 828 829 830 831 832 832 833 834 835 835 836 837
775 776 777 778 780 781 782 784 785 786 787 788 789 790 790 791 792 793 794 795 795 796 797 798 799 800 801 802 803 804 805 806 807 807 808 809 810 811 812 812 813 814 815 815 816 817 818 819 820 820 821 822 822 823 823 824 825 826 827 828 829 829 830 831 832 833 833 834 835
772 773 775 776 778 779 780 782 783 784 785 786 787 787 788 788 789 790 791 792 793 795 796 796 797 798 799 800 801 802 803 804 805 805 806 807 808 809 810 810 811 812 813 814 815 816 816 817 818 818 819 820 820 821 822 823 823 824 825 826 827 827 828 829 830 831 832 832 833
770 771 772 774 775 777 778 779 781 782 783 783 784 784 785 786 787 788 790 791 792 792 793 794 795 796 797 798 799 800 801 802 802 803 804 805 806 807 808 809 810 811 811 812 813 814 814 815 816 816 817 818 818 819 820 821 822 822 823 824 825 826 826 827 828 829 830 830 831
768 769 770 772 773 774 776 777 778 779 780 781 781 782 783 784 785 787 788 789 789 790 791 792 792 793 795 796 797 797 798 799 801 802 802 803 804 805 806 807 808 809 810 810 811 812 813 813 814 814 815 816 816 817 818 818 820 820 821 822 823 824 824 825 826 827 828 829 829
765 767 768 769 771 772 773 775 776 777 778 778 779 780 782 782 783 784 786 787 787 788 789 790 791 792 792 793 794 795 796 797 798 799 801 802 802 803 804 805 806 807 808 808 809 810 811 812 812 812 813 814 814 815 816 817 817 818 819 821 822 822 822 823 824 825 826 827 827
762 764 765 767 768 770 772 773 774 775 776 777 777 778 779 780 781 782 783 784 785 786 787 787 788 789 790 791 792 793 794 795 796 797 798 799 800 801 802 803 804 805 806 807 807 808 809 809 810 810 811 812 813 814 814 815 816 817 817 818 819 820 821 821 822 823 824 825 825
761 762 763 764 766 768 769 771 772 772 773 774 775 776 777 778 779 780 781 782 783 784 784 785 787 787 788 789 790 791 792 793 794 795 796 797 798 799 800 801 802 803 804 804 805 806 807 807 807 808 809 810 811 812 812 813 813 814 816 816 817 818 818 819 820 821 822 823 823
759 761 762 763 764 766 767 768 769 770 771 771 772 773 774 775 776 777 779 780 781 781 782 783 784 785 786 787 787 789 790 791 792 793 794 795 796 797 798 799 800 801 802 802 803 804 804 805 806 806 807 808 809 810 811 811 812 812 813 814 815 816 816 817 817 818 819 821 822
757 759 760 761 762 763 765 766 767 767 768 769 769 771 772 773 774 775 776 777 778 779 780 781 782 783 783 784 785 787 787 788 790 791 792 793 794 795 796 797 798 799 800 800 801 802 802 803 803 804 805 806 807 808 809 809 810 810 811 812 813 813 814 815 816 817 817 818 819
756 757 757 759 760 761 762 763 764 764 765 766 767 768 769 770 771 772 773 774 775 777 778 779 780 780 781 782 783 784 785 787 787 788 790 791 792 793 794 795 796 797 797 798 798 799 800 801 802 802 803 804 805 806 807 807 808 808 809 810 811 812 812 813 814 814 815 816 817
753 754 755 757 757 758 759 760 761 762 762 763 764 765 767 768 769 770 771 772 773 774 775 776 777 778 779 780 781 782 783 784 785 786 787 788 789 790 792 792 793 794 795 796 796 797 798 799 800 801 802 802 803 804 805 805 806 807 807 808 809 810 811 812 812 813 813 814 815
751 752 753 754 755 755 756 757 758 759 759 760 761 762 764 765 766 767 768 769 770 771 772 773 774 775 777 777 779 780 781 782 783 784 785 786 787 787 789 790 791 792 792 793 794 795 796 797 797 798 799 800 801 802 803 803 804 805 806 807 807 808 809 810 811 811 812 813 814
748 749 750 751 752 752 753 754 755 756 757 757 759 760 761 762 763 764 765 766 767 768 769 770 772 773 774 775 776 777 778 779 780 781 782 783 784 785 786 787 788 790 791 791 792 793 794 795 796 797 797 798 799 800 801 802 802 803 804 805 806 807 808 809 809 810 811 811 812
745 746 747 748 748 749 750 751 752 753 754 756 757 758 759 760 761 762 762 763 764 765 767 768 769 770 771 772 773 774 776 777 777 778 779 781 782 783 784 785 787 787 788 789 790 791 792 793 794 795 796 797 797 798 799 800 801 802 802 803 804 805 806 807 808 808 809 810 811
742 743 744 744 745 747 747 749 750 751 752 754 755 756 757 757 758 759 760 761 762 763 764 765 767 767 768 770 771 772 773 774 775 776 777 778 780 781 782 783 784 785 787 787 788 789 790 791 792 793 794 795 796 797 797 798 799 800 801 802 802 803 804 805 806 807 807 808 809
739 739 740 741 742 744 745 746 747 749 751 752 753 753 754 755 756 757 757 758 759 761 762 763 764 765 766 767 768 769 771 772 773 774 775 776 777 778 780 781 782 783 784 785 786 787 788 789 790 791 792 793 794 795 796 796 797 798 799 800 801 801 802 803 804 805 806 807 807
735 736 737 739 740 741 742 744 745 747 748 749 750 751 752 753 754 754 755 757 758 759 760 760 762 762 763 765 766 767 768 770 771 772 773 774 775 776 777 779 780 781 782 783 784 785 786 787 788 789 790 791 792 792 793 794 795 796 797 797 798 799 800 801 802 803 804 804 806
732 734 735 736 737 738 740 741 743 744 745 746 747 748 749 750 751 752 754 755 756 757 757 758 759 760 761 762 764 765 767 768 769 770 771 772 773 774 775 777 777 778 779 780 781 782 783 784 786 787 787 789 789 790 791 792 793 794 795 795 796 797 798 799 800 801 802 802 803
730 732 733 734 735 736 737 739 740 741 742 743 744 746 747 748 749 751 752 753 754 754 755 756 757 758 760 761 762 763 765 766 767 768 769 770 771 772 773 774 775 776 777 777 778 779 781 782 783 784 785 786 787 788 789 790 791 792 792 793 794 795 796 797 797 799 800 801 802
728 729 730 731 732 733 734 736 737 738 739 740 742 743 744 746 747 748 750 751 752 752 753 754 755 756 758 759 760 762 762 764 765 766 767 768 769 770 771 772 772 773 774 775 776 777 778 779 780 782 783 784 785 786 787 787 788 789 790 791 792 793 794 795 795 796 797 798 799
725 726 727 728 729 730 731 732 733 734 736 737 739 741 742 743 745 746 747 749 750 751 752 752 753 754 755 757 758 759 760 762 763 764 765 766 767 767 768 769 770 771 771 772 773 774 776 777 778 779 780 781 782 783 784 785 786 787 788 789 790 791 792 792 793 794 795 797 798
722 723 724 725 727 727 728 729 730 732 733 735 737 738 739 741 742 744 746 747 748 749 750 751 752 752 753 754 756 757 758 759 761 762 763 764 765 766 766 767 768 768 769 769 771 772 774 775 776 777 778 779 780 781 782 783 784 785 786 787 788 789 790 791 792 793 794 795 797
719 720 721 722 724 724 725 727 728 729 731 732 734 735 737 738 740 742 743 745 747 748 749 749 749 750 751 752 753 754 756 757 759 760 761 762 763 764 765 766 766 766 767 768 769 771 772 773 774 775 776 777 778 779 780 781 782 783 784 785 786 787 788 790 791 792 793 794 796
716 717 718 720 721 722 723 724 725 727 728 730 731 733 735 736 738 739 741 743 745 746 747 747 747 747 748 750 751 752 754 756 757 758 760 761 762 763 764 764 765 765 766 767 768 769 770 771 772 773 774 775 776 777 778 779 780 781 782 783 784 786 787 788 790 791 792 794 795
713 715 716 717 718 719 720 722 722 724 726 727 729 731 732 734 735 737 739 741 743 744 745 745 745 746 747 747 749 751 752 754 755 757 758 760 761 762 763 764 764 765 765 766 767 768 768 769 770 771 772 773 774 775 776 777 778 779 780 782 783 784 786 787 789 790 792 793 794
712 713 714 715 716 717 718 719 721 722 723 725 727 728 730 731 733 735 737 739 741 742 743 744 744 744 745 746 747 749 751 752 754 756 757 759 760 761 762 763 764 764 765 766 766 767 768 769 770 771 771 772 773 774 775 776 776 777 779 780 781 783 784 786 787 789 790 792 793
710 711 712 713 714 716 717 718 719 720 721 722 724 725 727 729 730 732 735 737 740 741 742 743 743 743 744 745 746 747 749 751 752 754 756 757 759 760 762 762 763 764 765 765 766 767 767 768 769 770 771 772 772 773 774 775 776 777 778 779 781 782 783 785 786 788 789 790 791
708 710 711 712 713 714 716 717 717 718 719 720 722 723 725 727 729 731 733 736 738 740 741 742 742 742 743 744 745 747 748 750 751 753 754 756 758 759 760 762 762 763 764 765 766 767 767 768 769 770 771 772 772 773 774 775 776 777 778 779 780 782 783 784 786 787 788 789 790
707 709 710 711 712 713 714 715 716 716 717 718 720 722 724 725 727 729 732 734 736 738 740 740 741 742 742 743 744 746 747 749 750 752 753 755 757 758 759 760 761 762 763 765 766 766 767 768 769 770 771 772 772 773 774 775 776 777 778 779 780 782 782 784 785 786 787 787 788
707 708 709 710 712 712 713 714 714 715 716 717 719 721 722 724 726 728 730 732 735 737 738 739 740 741 742 743 744 745 747 748 749 751 752 754 755 757 758 759 761 762 763 764 765 766 767 768 769 770 771 772 772 773 774 775 776 777 778 779 780 781 782 783 784 785 785 786 787
707 708 709 710 711 711 712 712 713 714 715 717 718 720 722 723 725 727 729 732 734 736 737 738 739 740 741 742 743 745 746 747 748 750 751 752 754 756 757 759 760 761 762 763 764 766 767 768 769 770 771 772 772 773 774 775 776 777 778 779 780 780 781 782 782 783 784 785 785
706 707 708 709 710 710 711 711 712 713 714 716 717 719 721 722 724 727 729 731 733 735 736 737 738 739 741 742 743 744 745 747 748 749 751 752 754 755 757 758 759 761 762 763 764 766 767 768 769 770 771 771 772 773 774 775 776 777 777 778 779 779 780 781 782 782 783 783 784
706 707 708 708 709 710 710 711 712 713 714 715 717 718 720 722 724 726 728 731 733 734 736 737 737 739 740 741 742 743 745 746 747 749 750 752 753 755 756 758 759 760 762 763 764 766 767 768 769 770 770 771 772 773 774 775 775 776 777 777 778 779 779 780 781 781 782 782 782
706 707 707 708 709 709 710 711 712 713 714 715 716 718 719 722 723 726 728 731 733 734 735 736 737 738 739 741 742 743 744 746 747 748 750 752 753 755 756 757 759 760 762 763 764 766 767 768 769 769 770 771 772 773 774 774 775 776 776 777 777 778 778 779 779 780 780 780 781
706 707 707 708 709 709 710 711 712 712 713 714 716 718 720 722 724 726 728 731 733 734 735 735 736 737 739 740 741 742 744 745 747 748 750 752 753 754 756 757 759 760 762 763 765 766 767 768 769 769 770 771 772 772 773 774 775 775 776 776 777 777 777 778 778 779 779 779 780
706 707 707 708 709 709 710 711 712 712 714 715 716 718 720 722 724 726 729 731 733 734 734 735 736 737 738 740 741 742 744 745 747 748 750 752 753 754 756 757 759 760 762 763 765 766 767 767 768 769 770 771 771 772 773 773 774 775 775 775 776 776 777 777 777 777 778 778 778
Wind_Speed
26 25 24 24 24 23 24 24 24 24 23 22 21 21 21 21 20 19 19 19 19 19 19 18 18 19 21 22 23 24 24 24 24 24 25 25 25 24 24 24 23 23 23 22 21 21 21 21 21 20 21 21 22 23 24 26 26 26 26 25 25 24 22 22 23 23 22 20 19
27 26 25 25 24 24 23 23 24 24 24 24 23 22 21 21 21 20 20 20 20 19 19 19 18 18 19 21 22 22 22 22 22 22 23 23 23 23 23 23 23 23 22 22 21 21 21 21 21 21 21 21 21 22 23 25 26 26 26 26 25 24 23 22 23 23 22 21 19
28 27 26 25 25 24 24 23 24 25 25 24 24 22 22 21 22 21 20 21 20 19 18 18 18 18 18 19 20 21 20 20 20 20 21 21 22 22 22 23 23 22 22 22 22 21 21 21 21 21 21 21 21 21 22 24 25 26 26 26 25 24 23 23 23 22 22 21 20
29 28 27 27 27 27 26 25 25 25 24 24 23 23 22 22 22 21 20 20 20 19 19 19 19 19 19 19 20 20 20 19 19 19 19 20 21 21 22 22 22 22 22 22 22 22 21 21 21 21 21 21 21 21 22 23 24 25 25 25 25 24 24 24 23 22 22 21 21
30 30 29 29 29 28 28 26 25 24 23 22 22 23 23 23 22 22 21 21 21 21 21 20 20 20 19 19 20 20 20 19 19 19 19 20 20 21 21 22 22 22 22 22 22 22 21 21 21 21 21 21 21 21 21 22 23 24 25 24 24 24 24 24 23 23 22 22 21
30 31 31 30 29 28 27 26 25 23 22 22 22 23 23 23 23 23 23 22 22 23 22 21 21 21 20 20 20 20 20 20 20 20 20 20 20 21 21 22 22 22 22 22 22 22 22 21 21 22 21 21 21 21 21 21 22 23 24 24 24 24 24 24 23 23 23 23 22
30 31 31 31 30 28 27 26 25 23 22 22 23 24 24 25 24 24 24 23 22 22 22 22 22 22 21 21 21 21 21 21 21 21 20 20 21 21 21 22 22 22 22 22 22 22 22 22 22 22 22 21 21 21 21 21 21 22 23 23 23 23 23 23 23 23 23 23 22
29 30 30 31 30 29 29 27 26 24 23 23 24 25 26 26 26 25 24 22 22 21 21 22 23 23 23 23 22 23 22 22 22 21 21 21 21 22 22 22 22 22 23 23 23 23 23 23 23 22 22 21 21 21 21 22 22 22 23 22 22 23 24 24 24 24 24 23 23
28 29 30 30 30 30 29 28 27 26 25 25 26 26 26 26 26 25 24 22 22 22 21 21 23 23 23 23 24 24 24 23 23 22 22 22 22 22 23 23 23 23 23 23 23 23 24 23 23 23 22 21 21 21 21 22 22 23 23 22 21 22 23 24 25 24 24 23 23
28 29 29 29 30 30 29 28 27 27 27 26 26 26 26 26 26 25 24 23 23 22 21 21 22 22 23 24 24 25 25 24 24 23 23 23 23 23 24 24 24 24 24 24 24 24 24 24 24 23 22 22 21 21 21 22 23 23 23 22 22 22 23 24 24 24 23 23 24
29 29 29 29 29 29 28 28 27 27 27 27 27 26 26 26 26 26 25 24 22 22 22 22 22 22 23 24 25 25 25 25 24 24 23 23 24 24 24 25 25 25 25 25 25 25 25 25 25 24 23 22 21 20 21 22 23 23 23 23 22 22 23 24 24 24 23 23 24
29 28 29 29 29 28 28 27 27 27 28 28 28 27 26 26 27 27 26 24 23 23 24 23 22 23 24 24 25 25 25 25 25 24 24 24 24 25 25 25 26 26 26 26 25 25 25 25 25 25 24 23 21 21 21 22 23 23 24 24 23 23 23 24 24 24 24 24 24
28 27 27 28 28 28 27 27 27 27 28 28 29 28 27 27 27 27 26 25 25 25 24 24 23 24 24 25 25 25 25 25 25 25 25 25 25 25 25 26 26 26 26 26 26 26 26 26 26 26 25 24 23 22 22 22 23 24 24 24 24 23 24 24 25 25 25 25 24
28 27 27 27 28 28 28 28 27 27 27 28 29 29 28 28 27 27 27 26 26 26 25 24 24 25 25 26 26 25 25 25 25 25 25 25 25 25 25 26 26 26 26 26 27 27 27 26 26 26 26 25 24 23 23 23 23 24 24 24 24 24 24 25 25 26 26 25 25
28 28 28 28 28 28 28 29 28 27 27 28 29 29 28 27 27 27 27 27 27 27 26 25 25 26 26 26 26 25 25 25 25 25 25 25 25 26 26 26 26 26 27 27 27 27 27 27 27 26 26 26 25 24 24 23 24 24 24 24 24 24 24 24 25 26 27 27 26
28 29 28 28 28 28 29 29 28 28 28 29 29 29 29 28 27 27 28 28 28 27 27 27 27 27 27 27 26 26 25 25 25 25 25 26 26 26 26 26 26 27 27 27 27 28 28 28 27 26 26 26 26 25 24 24 24 24 24 24 24 24 23 24 24 26 27 27 27
28 29 29 29 29 30 30 29 29 28 29 29 29 29 29 28 27 27 28 29 28 27 27 28 28 28 27 27 27 26 26 25 25 26 26 26 26 27 27 27 27 27 27 27 27 27 27 27 27 26 26 25 25 25 25 24 24 23 23 23 23 22 22 23 23 25 25 26 26
29 29 30 30 30 31 31 31 30 30 30 30 29 29 29 28 28 28 29 30 29 29 29 29 29 29 28 27 27 27 27 26 26 27 27 27 27 27 27 27 27 27 27 27 27 27 27 27 27 26 26 25 25 24 24 24 23 23 23 22 22 22 22 22 22 23 24 24 25
29 30 30 31 32 32 32 32 32 31 30 29 29 29 29 29 29 29 30 30 31 31 30 29 29 29 29 28 28 28 28 28 28 28 28 27 27 27 27 27 27 27 27 27 27 26 26 26 26 26 25 25 24 24 23 23 22 22 22 22 21 21 21 21 22 23 23 24 24
30 30 31 32 33 33 33 33 33 32 30 29 28 28 29 30 30 30 30 31 31 31 31 30 29 29 29 29 29 29 29 29 28 28 28 28 27 27 27 27 27 27 27 27 26 26 26 26 26 26 25 24 24 23 22 22 21 21 21 21 21 21 21 21 22 22 23 23 23
30 31 32 33 33 33 33 33 32 31 30 28 28 28 29 30 30 31 31 32 31 31 30 30 30 29 29 29 29 29 28 28 28 27 27 27 27 27 28 27 27 27 27 27 26 26 25 25 25 25 25 24 23 22 22 21 21 21 21 21 21 21 21 22 22 22 23 23 23
31 32 32 33 33 33 33 32 31 30 29 29 28 28 29 29 30 31 31 31 30 30 30 30 30 30 29 29 29 28 28 27 27 27 27 27 27 27 27 27 27 27 27 27 26 26 26 25 25 25 24 23 23 23 22 21 21 21 22 21 21 21 21 22 22 22 22 22 23
31 31 31 31 32 32 32 31 30 29 29 29 29 29 29 29 30 30 30 29 29 30 30 30 29 29 29 29 28 27 27 26 26 26 26 26 26 26 26 27 27 27 27 27 27 26 26 25 25 25 24 23 23 23 23 22 22 22 21 21 21 21 21 21 22 22 22 22 22
31 30 29 29 30 31 31 31 30 30 30 30 30 29 29 29 29 28 28 29 29 30 30 29 28 28 28 27 27 27 26 26 25 25 26 26 26 26 26 27 27 27 27 28 28 27 27 26 25 25 25 24 24 23 23 23 22 22 21 21 21 20 21 21 21 22 22 22 22
30 29 28 28 29 30 30 30 30 31 31 30 30 29 29 28 28 28 28 28 29 30 29 28 27 27 26 26 26 26 26 25 25 25 25 26 26 26 26 26 27 27 27 28 28 28 28 27 26 25 25 25 24 24 24 23 23 22 21 21 21 21 20 21 21 21 22 22 23
29 29 29 29 29 29 30 30 31 31 30 30 29 28 28 28 27 27 28 28 28 28 28 27 26 26 25 25 25 25 25 25 24 24 25 25 26 26 26 26 26 27 27 28 28 28 27 27 26 26 25 25 24 24 23 23 23 22 22 22 21 21 21 21 21 21 22 23 23
29 29 29 30 29 29 30 31 30 30 29 28 28 27 27 27 26 26 27 27 27 27 26 26 25 25 25 25 25 25 25 24 24 24 24 25 25 26 26 26 26 26 27 28 28 27 26 25 25 25 25 25 24 24 23 23 23 23 22 22 22 22 21 21 20 20 21 22 23
29 29 29 29 29 29 30 30 29 28 28 27 27 27 26 26 25 25 25 25 25 24 24 24 24 24 24 24 24 25 24 23 23 23 23 24 24 25 26 25 25 26 27 27 26 25 24 24 25 25 25 24 24 23 23 23 23 22 22 22 21 21 20 19 18 19 20 21 21
29 28 28 28 29 29 29 28 28 27 27 26 26 25 25 25 24 24 24 24 23 23 23 24 24 24 23 23 23 24 23 23 22 22 22 22 23 23 24 24 24 25 26 25 24 23 23 23 24 24 23 23 22 22 22 22 22 21 21 21 20 19 18 18 17 17 17 18 19
27 26 26 27 28 28 27 27 27 26 25 24 24 24 24 24 24 23 23 22 22 23 23 23 23 23 22 22 22 22 21 22 21 21 21 21 21 22 22 22 22 23 24 23 22 22 22 22 22 22 22 22 22 21 21 21 21 20 20 19 18 18 18 17 16 16 16 16 16
24 24 25 25 26 26 26 26 25 24 23 23 23 23 23 23 22 22 22 22 22 22 22 22 22 22 22 21 21 20 20 21 21 20 20 20 20 20 20 21 21 22 22 21 21 20 20 20 21 21 21 21 20 20 20 20 20 19 18 18 18 18 18 18 17 17 16 16 15
22 23 23 23 24 24 24 23 23 23 22 22 22 22 22 22 22 21 21 20 20 20 20 20 21 21 20 20 19 19 19 19 20 20 20 20 20 19 19 19 20 21 20 19 19 19 19 19 19 19 19 19 19 19 19 19 18 18 17 17 18 18 18 18 17 17 16 15 15
21 21 21 21 21 21 21 21 21 21 21 21 22 22 22 21 20 20 19 19 19 19 19 20 20 19 19 18 18 18 18 19 19 19 19 19 18 18 17 18 19 19 19 18 17 17 17 17 18 18 19 18 17 17 17 17 17 16 16 16 17 17 17 16 16 15 15 15 15
19 19 19 20 20 20 20 21 21 21 21 21 21 21 21 20 19 19 19 19 19 19 19 19 18 18 18 18 18 18 18 18 18 18 18 18 17 17 17 18 18 18 17 16 15 15 15 16 17 18 18 17 16 15 15 16 16 15 15 15 15 15 15 14 14 14 14 14 14
17 18 18 18 18 19 20 20 20 20 20 20 19 19 19 19 19 19 19 19 18 18 18 17 17 17 17 17 17 17 17 18 18 18 17 17 17 17 17 17 17 16 15 14 14 14 15 16 17 18 18 16 15 15 15 15 15 15 14 14 14 14 14 13 13 13 14 14 14
16 17 17 17 17 18 19 19 19 19 19 18 18 18 18 18 18 18 18 18 18 17 17 17 16 16 16 16 16 16 16 17 17 17 17 17 17 16 16 16 15 14 13 14 14 14 15 16 17 18 18 17 15 15 15 15 14 13 13 13 13 13 13 13 13 13 14 14 15
15 16 16 16 17 18 18 18 18 18 17 17 17 18 18 17 17 17 17 17 17 17 17 17 16 16 16 16 16 16 16 16 16 16 15 15 15 15 14 13 12 12 13 14 14 14 15 16 17 18 18 17 16 15 14 14 13 12 12 12 12 12 13 13 13 14 14 15 16
14 15 15 16 16 17 17 17 17 17 16 16 17 17 17 17 17 16 16 17 17 17 17 16 16 16 16 16 16 15 15 14 13 13 13 13 13 12 11 11 11 12 14 15 14 14 15 16 17 18 19 18 16 15 14 13 12 11 12 12 12 12 13 13 14 15 15 16 17
13 14 15 15 16 16 16 16 16 16 16 16 17 17 17 16 16 16 16 16 16 17 16 16 16 16 16 15 15 14 13 12 12 11 11 11 11 11 11 11 13 14 15 15 14 14 15 16 17 18 19 18 16 15 14 12 11 11 11 11 11 11 12 13 14 14 15 16 17
13 14 14 15 15 16 15 15 15 15 16 17 17 17 17 16 16 16 16 16 16 16 16 16 16 16 15 14 14 13 13 12 11 11 11 10 10 11 12 13 15 16 15 14 14 15 16 16 17 18 18 17 16 15 13 12 11 11 10 11 10 10 10 12 13 13 14 15 16
13 13 13 14 15 15 15 15 15 16 16 17 18 18 17 17 17 17 17 17 16 16 16 16 16 15 15 14 14 14 13 13 13 12 12 12 12 12 13 15 16 16 15 14 14 15 16 16 16 16 17 17 16 15 13 11 10 10 10 10 9 9 9 9 10 11 12 13 14
Wind_Direction
209 210 211 212 212 213 214 216 218 218 218 218 217 218 218 218 218 219 219 219 219 221 222 222 222 225 229 231 232 234 235 235 234 234 233 233 234 234 235 235 235 235 234 233 232 231 231 230 229 229 229 229 228 228 228 228 228 228 228 227 227 226 226 226 227 227 226 226 227
209 210 211 212 212 213 214 216 218 218 219 218 218 218 218 219 219 219 220 220 220 221 221 222 221 223 226 230 233 233 233 233 232 232 231 231 232 232 232 233 233 232 232 231 229 228 228 228 227 226 226 227 226 225 226 229 229 227 226 226 226 226 225 225 227 227 227 226 226
210 210 211 211 212 213 214 215 217 218 219 219 218 218 219 220 220 221 221 222 222 221 221 221 221 221 222 227 231 232 231 230 230 229 229 228 228 228 229 229 229 229 229 228 227 226 226 226 225 225 225 225 225 224 225 227 228 227 225 225 226 226 225 225 226 226 225 225 224
210 210 210 212 212 213 214 216 217 218 218 218 219 219 219 220 221 222 222 222 222 221 220 221 221 220 220 223 227 230 229 228 227 226 226 226 225 225 225 225 225 226 226 225 224 224 224 225 225 225 225 226 225 224 224 226 227 226 225 225 225 225 225 225 225 224 223 223 223
210 211 212 213 214 215 216 217 217 217 217 217 218 219 220 221 221 222 222 222 222 222 222 222 222 222 222 223 226 228 229 227 225 224 224 224 223 222 222 222 223 223 223 222 222 223 223 223 224 225 226 226 226 225 224 225 226 225 225 225 225 225 225 225 225 224 223 223 223
211 212 213 214 214 215 216 217 217 216 215 216 217 218 220 221 221 222 222 223 224 224 225 224 223 224 224 223 225 227 228 227 225 223 223 223 221 221 221 221 221 220 220 221 221 221 221 222 223 224 225 225 225 225 224 225 225 225 224 224 224 225 225 224 224 224 224 223 222
212 213 214 215 215 215 215 216 216 215 215 216 218 219 220 221 222 222 223 223 224 224 224 224 224 224 224 223 223 225 226 226 225 224 223 222 221 221 220 220 219 219 220 220 220 220 220 221 223 224 225 225 224 224 223 222 223 223 223 223 223 224 224 223 224 224 224 224 223
213 214 214 215 215 215 215 215 215 214 215 217 219 220 222 223 223 224 223 223 223 223 223 224 224 224 224 224 223 224 226 226 226 224 223 222 222 221 220 220 220 219 219 219 219 220 220 220 222 223 224 224 224 223 222 221 221 222 222 222 223 224 224 224 224 224 224 224 222
213 214 215 215 215 215 215 215 215 215 216 218 221 222 223 224 225 225 223 222 223 223 223 223 225 225 225 224 225 226 227 227 226 225 224 223 222 222 221 220 220 220 219 219 219 220 221 221 222 222 223 223 223 223 222 221 220 221 222 222 223 224 225 225 225 225 224 223 222
212 213 214 214 215 216 215 215 216 217 218 220 223 224 224 225 225 225 224 223 224 223 221 221 223 224 224 225 226 227 227 228 227 226 225 224 223 222 221 221 220 220 219 219 219 220 221 222 222 222 222 222 222 223 223 223 222 221 222 223 223 224 225 226 225 224 223 223 223
212 213 214 214 215 215 215 215 217 218 220 222 223 224 224 224 225 225 225 224 223 223 222 222 221 221 222 224 225 227 227 227 227 226 225 224 223 222 221 221 221 220 220 219 219 219 220 222 222 222 222 222 222 223 224 224 224 223 223 224 223 223 224 225 225 223 222 222 223
212 213 214 215 215 215 214 215 217 219 220 222 223 224 224 224 225 225 225 223 223 224 224 223 220 220 222 223 225 225 226 226 227 226 225 224 223 223 223 222 222 222 221 221 220 220 220 221 222 222 222 222 221 222 223 225 225 225 224 225 224 223 223 224 224 223 222 222 222
213 213 215 215 215 215 214 215 217 219 220 222 223 223 223 224 225 225 224 223 223 224 224 222 221 220 221 223 224 224 224 225 226 226 225 224 224 223 223 223 223 223 222 222 222 222 222 222 223 222 222 222 222 222 223 225 226 225 225 224 223 223 223 223 223 223 222 221 221
213 213 214 215 215 215 214 215 217 219 220 222 223 223 223 223 224 223 223 223 223 223 223 222 221 221 222 223 223 224 224 225 225 225 225 225 224 223 222 222 223 223 222 223 223 223 224 223 224 224 224 224 224 224 224 225 226 226 226 224 223 223 223 223 223 223 222 222 222
213 214 215 215 215 215 215 216 217 219 220 221 223 223 223 222 222 222 222 222 222 222 222 221 220 221 222 223 223 223 223 224 225 225 224 224 224 223 222 222 222 222 222 222 223 224 225 225 226 226 226 226 226 226 226 226 227 228 227 226 225 224 224 224 224 224 223 223 222
214 215 215 215 215 216 216 217 218 219 220 221 223 223 222 221 221 221 221 221 221 221 221 221 221 221 222 222 222 222 222 222 223 223 223 223 223 223 222 221 221 221 221 222 223 224 226 227 227 227 227 227 227 227 227 227 228 229 229 228 228 227 225 225 225 225 225 225 223
215 215 215 215 216 217 217 218 218 219 221 221 222 222 221 220 219 219 220 220 219 219 219 221 222 221 221 221 221 220 219 220 221 222 222 223 223 223 222 221 221 221 221 221 222 223 225 226 227 227 227 227 228 228 228 228 228 229 229 229 229 228 227 226 226 227 226 226 224
215 216 216 216 217 218 219 219 220 220 221 222 222 222 221 219 219 219 220 220 219 218 218 220 221 221 220 220 220 219 218 219 220 222 222 223 223 223 223 223 222 222 222 222 222 223 224 225 226 226 226 227 227 228 228 228 229 229 230 230 230 229 228 227 227 227 227 226 224
216 216 216 217 218 219 220 221 221 222 222 223 222 222 221 220 219 219 219 220 219 219 218 218 220 220 221 220 220 220 220 220 221 222 223 224 224 224 224 224 224 223 223 223 223 223 224 225 226 226 225 226 226 227 227 227 228 229 230 230 230 229 228 227 226 227 227 226 225
217 217 217 218 219 220 221 222 222 223 223 223 223 222 222 221 220 219 219 220 220 220 219 218 218 219 220 220 220 221 221 222 222 223 224 224 224 224 225 225 224 224 224 224 224 224 224 225 225 226 225 225 225 225 226 226 226 227 228 230 230 229 228 227 226 226 227 227 225
218 219 220 220 221 221 222 223 224 224 224 223 223 223 223 222 221 220 220 220 220 219 218 218 218 218 218 219 219 220 222 223 223 223 224 224 224 225 225 226 225 224 224 224 224 223 223 223 224 225 225 225 225 224 224 224 225 227 228 229 229 229 229 227 226 226 227 226 225
220 221 221 221 221 222 222 223 224 223 223 223 223 223 223 222 221 220 220 220 220 219 219 219 219 219 219 219 219 220 221 222 223 223 223 223 224 224 224 224 224 224 224 223 223 222 222 223 224 224 224 224 224 224 224 224 225 226 228 229 229 230 230 228 227 227 227 227 225
222 222 222 222 222 222 222 222 222 222 222 222 222 223 222 222 222 221 220 219 219 219 219 220 220 220 220 221 221 220 220 221 222 223 223 223 222 222 222 222 222 223 223 223 222 222 221 221 222 223 223 223 223 224 224 225 225 226 227 228 229 229 230 230 229 228 227 227 226
222 221 221 221 222 222 222 221 221 221 221 221 221 221 221 222 221 220 219 219 220 220 220 219 219 220 221 221 221 221 220 220 220 221 222 222 221 221 221 221 221 222 222 223 223 221 220 219 219 220 222 222 223 224 225 225 225 225 225 226 226 227 229 230 229 228 226 225 223
222 221 220 220 220 221 221 220 220 220 220 220 220 220 220 220 220 219 219 219 220 220 219 218 218 218 219 219 220 220 220 219 219 219 219 220 220 220 220 220 220 221 222 223 223 223 222 221 220 219 220 221 222 223 224 225 225 225 225 225 224 224 225 226 226 225 224 222 221
222 220 220 220 220 220 220 220 220 220 220 219 218 218 218 219 219 219 218 218 219 219 218 216 215 215 216 217 217 218 218 218 218 218 218 218 218 219 219 219 219 220 222 223 223 224 224 223 223 222 221 221 220 220 221 223 224 225 225 225 224 223 222 221 220 220 219 219 218
220 219 219 219 218 218 219 220 220 219 218 217 216 216 216 217 217 217 217 217 217 217 215 214 213 214 214 215 215 214 215 216 216 217 218 218 218 218 218 219 219 220 222 223 223 223 222 222 223 223 223 222 221 219 219 220 223 224 224 224 224 222 220 217 215 214 214 215 215
217 217 217 217 216 217 218 218 217 216 215 215 214 214 214 214 214 215 215 215 215 214 212 211 211 212 212 212 212 213 214 214 214 215 217 219 220 220 220 219 220 222 223 223 222 221 219 219 220 222 223 223 222 221 221 221 221 221 221 221 220 218 215 212 209 208 209 211 214
215 215 214 213 214 215 216 215 214 213 212 212 211 210 211 211 212 212 213 213 212 211 210 209 209 208 208 209 211 212 212 213 213 215 216 218 220 221 221 221 221 223 224 223 220 218 217 217 218 219 221 221 221 220 219 218 218 217 216 215 213 210 207 203 201 202 204 209 214
213 212 211 210 211 212 212 212 211 210 208 207 206 206 207 208 208 209 210 210 210 210 209 208 206 205 205 206 208 209 210 211 213 214 215 217 219 221 221 221 222 223 223 220 218 216 215 215 216 217 219 219 219 218 216 214 213 211 209 207 204 201 198 196 195 197 201 208 215
211 209 208 208 209 209 209 209 207 204 202 201 201 202 203 203 204 205 207 207 208 209 209 207 204 202 203 204 204 206 207 209 211 213 214 216 218 220 221 221 222 223 222 219 217 215 214 213 213 214 215 217 217 216 213 210 208 204 201 199 197 195 194 195 197 201 206 211 217
209 207 206 206 206 206 206 204 201 199 197 197 197 198 199 200 201 202 203 204 205 206 206 205 203 201 200 201 202 203 205 207 209 211 213 214 216 217 219 220 222 223 222 219 216 214 212 210 208 207 209 212 214 213 210 206 201 198 195 194 194 195 196 198 202 208 213 218 222
206 205 204 204 203 203 201 199 196 194 193 193 194 195 195 196 196 197 198 200 202 203 204 203 201 199 198 199 200 201 203 205 207 209 211 211 212 214 217 220 222 221 220 217 214 211 208 205 201 200 202 207 210 209 206 200 194 190 189 192 194 197 200 204 209 215 220 225 228
203 202 202 201 200 198 196 194 192 190 189 189 190 192 192 191 190 191 193 196 198 200 201 200 199 198 198 198 198 198 201 203 205 206 207 208 208 211 215 219 220 219 217 213 209 204 200 196 194 193 194 199 202 202 197 191 187 186 187 191 196 201 206 211 217 223 228 232 235
201 199 198 198 196 194 192 189 187 185 184 184 185 187 187 187 187 188 190 192 193 195 196 196 195 195 195 197 198 198 199 201 203 204 204 205 206 209 213 218 219 217 212 206 198 192 189 189 188 188 188 191 193 191 186 184 184 186 190 195 201 207 214 220 226 232 236 239 241
198 197 195 194 192 189 187 184 182 180 179 178 179 179 180 182 184 186 188 189 189 190 191 191 191 191 192 194 195 196 198 199 201 202 203 203 205 207 210 214 214 211 203 193 184 181 183 185 184 182 183 185 185 183 180 181 184 189 194 200 208 215 223 229 234 238 241 243 245
196 194 191 189 187 184 182 179 176 174 172 172 172 173 174 175 178 181 184 185 186 186 187 187 187 187 188 189 189 191 193 196 198 199 200 201 201 203 205 206 203 196 187 177 172 175 181 181 179 178 179 182 182 180 179 182 186 193 199 206 214 223 230 236 240 243 245 246 248
192 190 187 184 181 179 176 173 169 167 165 165 166 168 170 172 172 175 179 182 183 182 182 181 180 181 183 185 185 186 188 189 190 191 191 193 194 195 194 191 185 178 171 164 166 173 178 176 176 179 182 183 182 182 183 186 191 197 204 210 218 226 233 238 241 243 245 247 250
186 185 183 181 178 174 169 166 163 161 160 160 162 164 166 167 167 170 174 179 181 179 176 173 172 174 177 179 178 176 176 176 177 177 179 180 182 182 179 174 169 164 160 158 164 170 172 173 177 183 186 187 187 187 189 192 197 203 209 214 219 226 232 237 239 241 244 248 251
181 181 180 178 174 168 163 158 156 157 159 160 159 160 160 161 163 166 170 174 175 174 171 168 167 168 168 167 164 162 160 159 160 162 163 164 166 166 164 163 160 157 155 156 162 167 169 173 180 187 191 193 193 195 197 199 203 207 213 217 219 223 229 235 238 240 244 248 252
175 175 174 171 167 162 157 153 152 155 158 158 157 157 158 160 162 164 165 167 167 165 163 159 157 156 154 153 151 149 148 147 147 148 150 151 152 154 156 157 156 154 153 156 162 167 170 175 183 191 196 198 200 202 204 205 208 211 214 218 220 222 226 231 237 241 245 249 254